Terminal Aerodrome Forecast
Issued by NWS

Home | Current Version | Previous Version | Text Only | Print | Product List | Glossary On
Versions: 1 2 3 4 5 6 7 8 9 10 11 12 13 14 15 16 17 18 19 20 21 22 23 24 25 26 27
000
FTPA31 PHFO 172300
TAFLNY
TAF
PHNY 172326Z 1800/1824 21008KT P6SM BKN025
     FM180200 04013KT P6SM SCT025 BKN035
     FM180800 04008KT P6SM SCT025
     FM182000 27007KT P6SM SCT025 BKN035
      AMD NOT SKED=

USA.gov is the U.S. government's official web portal to all federal, state and local government web resources and services.